{"data":{"norad_id":64755,"epoch":"2026-09-20T14:13:27.348096Z","epoch_age_seconds":119637,"freshness":"FRESH","line1":"1 64755U 25147A   26263.59267764  .00020247  00000+0  60869-3 0  9997","line2":"2 64755  53.1595  53.0993 0001741  33.5707 326.5405 15.34403719 68695","mean_motion":15.34403719,"eccentricity":0.0001741,"inclination_deg":53.1595,"raan_deg":53.0993,"arg_perigee_deg":33.5707,"mean_anomaly_deg":326.5405,"bstar":0.00060869,"rev_number":6869,"period_min":93.847530618505,"perigee_km":461.5011982163,"apogee_km":463.88317493907,"semimajor_km":6840.8291865777,"source":"CELESTRAK","updated_at":"2026-09-21T09:00:35.414803Z"}}